Simultaneous Nadir Overpasses (SNOs) Predictions

Prediction of SNOs between GOES-16 and METOP-B Satellite Orbit:

Table of predicted SNOs for the next 14.0 days since TLE Epoch: 6/17/2023
Index Date Time (GOES-16) GOES-16 Lat,Lon METOP-B Lat,Lon Distance(km) Time Diff (sec)
1 06/17/2023 14:43:54 -0.00, -75.21 0.68, -78.16 336.86 80
2 06/18/2023 14:20:34 -0.01, -75.21 -0.45, -73.17 232.56 80
3 06/20/2023 02:42:14 0.01, -75.22 -0.54, -77.77 290.77 80
4 06/21/2023 02:18:55 0.02, -75.23 0.59, -72.78 279.07 80
5 06/22/2023 14:40:25 -0.03, -75.24 0.46, -77.33 238.73 80
6 06/23/2023 14:17:06 -0.03, -75.26 -0.67, -72.35 331.62 80
7 06/25/2023 02:38:46 0.03, -75.28 -0.31, -76.95 190.09 80
8 06/26/2023 02:15:26 0.04, -75.29 0.77, -71.95 380.79 80
9 06/27/2023 14:36:57 -0.04, -75.32 0.21, -76.52 135.55 80
10 06/28/2023 14:13:36 -0.04, -75.34 -0.87, -71.52 435.56 80
11 06/30/2023 02:35:16 0.03, -75.37 -0.15, -76.11 85.29 80
